Weather History for Klawock, AK

Change the Weather History Date:

Friday, February 21, 2014

  Actual Average Record
Temperature  
Mean Temperature 30 °F -  
Max Temperature 36 °F 40 °F 46 °F (1998)
Min Temperature 25 °F 30 °F 25 °F (2014)
Degree Days  
Heating Degree Days 34    
Moisture  
Dew Point 28 °F    
Average Humidity 90    
Maximum Humidity 100    
Minimum Humidity 76    
Precipitation  
Precipitation 0.00 in - - ()
Sea Level Pressure  
Sea Level Pressure 30.24 in    
Wind  
Wind Speed 2 mph (NE)    
Max Wind Speed 9 mph    
Max Gust Speed -    
Visibility 10 miles    
Events      
Averages and records for this station are not official NWS values.
T = Trace of Precipitation, MM = Missing Value Source: NWS Daily Summary

Daily Weather History Graph

Daily Weather History Graph

Search for Another Location

Airport:

Trip Planner

Search our weather history database for the weather conditions in past years. The results will help you decide how hot, cold, wet, or windy it might be!

Date:

Astronomy

Feb. 21, 2014 Rise Set
Actual Time 7:01 AM AKST 5:10 PM AKST
Civil Twilight 6:24 AM AKST 5:48 PM AKST
Nautical Twilight 5:41 AM AKST 6:31 PM AKST
Astronomical Twilight 4:59 AM AKST 7:13 PM AKST
Moon 12:19 AM AKST (2/21) 9:20 AM AKST (2/21)
Length of Visible Light 11h 23m
Length of Day
10h 08m
Waning Gibbous, 59% of the Moon is Illuminated
Feb 21
Waning Gibbous
Feb 22
Last Quarter
Feb 28
New
Mar 8
First Quarter
Mar 16
Full

Hourly Weather History & Observations

Time (AKST) Temp. Windchill Dew Point Humidity Pressure Visibility Wind Dir Wind Speed Gust Speed Precip Events Conditions
1:53 AM 28.0 °F - 26.1 °F 92% 30.22 in 10.0 mi Calm Calm - N/A   Mostly Cloudy
3:53 AM 27.0 °F - 26.1 °F 96% 30.24 in 10.0 mi Calm Calm - N/A   Scattered Clouds
4:53 AM 27.0 °F - 26.1 °F 96% 30.25 in 10.0 mi Calm Calm - N/A   Partly Cloudy
5:53 AM 25.0 °F - 24.1 °F 96% 30.25 in 10.0 mi Calm Calm - N/A   Scattered Clouds
6:53 AM 27.0 °F - 26.1 °F 96% 30.26 in 10.0 mi Calm Calm - N/A   Overcast
7:53 AM 27.0 °F - 27.0 °F 100% 30.26 in 10.0 mi Calm Calm - N/A   Overcast
8:53 AM 28.9 °F - 28.0 °F 96% 30.26 in 10.0 mi Calm Calm - N/A   Overcast
9:53 AM 30.0 °F - 28.9 °F 96% 30.27 in 10.0 mi Calm Calm - N/A   Partly Cloudy
10:53 AM 32.0 °F 28.7 °F 28.9 °F 88% 30.27 in 10.0 mi NNE 3.5 mph - N/A   Partly Cloudy
11:53 AM 34.0 °F 31.0 °F 28.9 °F 82% 30.26 in 10.0 mi NNE 3.5 mph - N/A   Overcast
12:53 PM 36.0 °F - 28.9 °F 76% 30.25 in 10.0 mi Calm Calm - N/A   Scattered Clouds
1:53 PM 36.0 °F 32.1 °F 28.9 °F 76% 30.24 in 10.0 mi NNE 4.6 mph - N/A   Mostly Cloudy
2:53 PM 35.1 °F 31.0 °F 30.9 °F 85% 30.23 in 10.0 mi NNE 4.6 mph - N/A   Overcast
3:53 PM 34.0 °F 31.0 °F 30.9 °F 89% 30.23 in 10.0 mi NNE 3.5 mph - 0.00 in   Overcast
4:53 PM 33.1 °F - 30.0 °F 89% 30.22 in 10.0 mi Calm Calm - 0.00 in   Overcast
5:53 PM 33.1 °F 27.7 °F 30.0 °F 89% 30.22 in 10.0 mi NE 5.8 mph - N/A   Overcast
6:53 PM 32.0 °F 26.4 °F 30.0 °F 92% 30.21 in 10.0 mi NE 5.8 mph - N/A   Overcast
7:53 PM 32.0 °F 24.2 °F 28.9 °F 88% 30.20 in 10.0 mi NE 9.2 mph - N/A   Overcast
8:53 PM 32.0 °F 27.5 °F 28.9 °F 88% 30.21 in 10.0 mi ENE 4.6 mph - N/A   Overcast
9:53 PM 32.0 °F 28.7 °F 28.9 °F 88% 30.21 in 10.0 mi NE 3.5 mph - N/A   Overcast
10:53 PM 32.0 °F 25.6 °F 28.9 °F 88% 30.21 in 10.0 mi NNE 6.9 mph - N/A   Overcast
11:53 PM 32.0 °F 26.4 °F 28.9 °F 88% 30.21 in 10.0 mi NE 5.8 mph - N/A   Overcast